This is the latest recevied weather packets stored in our database for station/object WC4PEM-9. If no packets are shown the sender has not sent any weather packets the latest 10 day(s).
| Time | Temp. | Humidity | Pressure | Rain* | Wind** | Luminosity | Snow |
|---|---|---|---|---|---|---|---|
| 1777659221 | 31.11° C | 49% | 1010.6 hPa | 0 mm | - | - | - |
| 1777659026 | 31.11° C | 50% | 1010.7 hPa | 0 mm | - | - | - |
| 1777658920 | 31.11° C | 50% | 1010.7 hPa | 0 mm | - | - | - |
| 1777658621 | 31.11° C | 49% | 1010.9 hPa | 0 mm | - | - | - |
| 1777658370 | 31.11° C | 52% | 1010.9 hPa | 0 mm | - | - | - |
| 1777658321 | 31.11° C | 52% | 1010.9 hPa | 0 mm | - | - | - |
| 1777658121 | 30.56° C | 51% | 1010.9 hPa | 0 mm | - | - | - |
| 1777658021 | 30.56° C | 51% | 1010.9 hPa | 0 mm | - | - | - |
| 1777657720 | 30.56° C | 51% | 1011.1 hPa | 0 mm | - | - | - |
| 1777657569 | 30.56° C | 52% | 1011.2 hPa | 0 mm | - | - | - |
| 1777657421 | 30.56° C | 52% | 1011.2 hPa | 0 mm | - | - | - |
| 1777657121 | 31.11° C | 51% | 1011.1 hPa | 0 mm | - | - | - |
| 1777656821 | 31.11° C | 52% | 1011.2 hPa | 0 mm | - | - | - |
| 1777656711 | 31.11° C | 50% | 1011.3 hPa | 0 mm | - | - | - |
| 1777656521 | 31.11° C | 50% | 1011.3 hPa | 0 mm | - | - | - |
| 1777656221 | 30.56° C | 55% | 1011.5 hPa | 0 mm | - | - | - |
| 1777656202 | 30.56° C | 55% | 1011.5 hPa | 0 mm | - | - | - |
| 1777655983 | 30.56° C | 56% | 1011.5 hPa | 0 mm | - | - | - |
| 1777655921 | 30.56° C | 55% | 1011.5 hPa | 0 mm | - | - | - |
| 1777655621 | 30.56° C | 56% | 1011.5 hPa | 0 mm | - | - | - |
| 1777655321 | 30.56° C | 55% | 1011.5 hPa | 0 mm | - | - | - |
| 1777655021 | 30.56° C | 55% | 1011.5 hPa | 0 mm | - | - | - |
| 1777654839 | 30.56° C | 55% | 1011.5 hPa | 0 mm | - | - | - |
| 1777654721 | 30.56° C | 55% | 1011.5 hPa | 0 mm | - | - | - |
| 1777654605 | 30° C | 57% | 1011.7 hPa | 0 mm | - | - | - |
* Rain latest hour (hover to see other rain measurements)
** Current wind speed in m/s (hover to see current wind gust speed)